"Pseudo-MPEC" for A10U2hr

Created 2023 Mar 26 14:22:02 UT using Find_Orb

Click here for an explanation of pseudo-MPECs

 
 Astrometry: 
     A10U2hr* C2023 03 25.43433711 57 19.990+02 44 50.21   ~3PFq 17.24oVNEOCPT05
     A10U2hr  C2023 03 25.44158511 57 31.034+02 47 01.21   ~3PFq 17.71oVNEOCPT05
     A10U2hr  C2023 03 25.45088311 57 45.211+02 49 50.70   ~3PFq 17.17oVNEOCPT05
     A10U2hr  C2023 03 25.45996811 57 59.016+02 52 35.40   ~3PFq 17.61oVNEOCPT05
     A10U2hr 1C2023 03 25.82040 12 07 24.15 +04 28 23.7    ~3Q87 18.9 VXNEOCP033
     A10U2hr 1C2023 03 25.82076 12 07 24.61 +04 28 29.1    ~3Q87 19.1 VXNEOCP033
     A10U2hr 1C2023 03 25.82112 12 07 25.07 +04 28 34.7    ~3Q87 18.8 VXNEOCP033
     A10U2hr  C2023 03 25c1(]pOM)hUo1kW6X17TxaWw85DY]re!*G8Twf]?^l4o^E`0wJ/^'K88
     A10U2hr  C2023 03 25,QpQd-#).-Q!bNgym%F[u^'5T72$J_-!U8?;IK#L?NmurVG7\VOHK88
     A10U2hr  C2023 03 254)ss6NN(nEx=p!=v@EC8toWPq3B-jKVXTORkWZMK%KBO9K^H92JcK88
     A10U2hr  C2023 03 25i]+v'VR`d[lU9L]Rba'i-i9/\KM,hpDMm%]y?H51WN8:Fj#-KFb2K88
     A10U2hr  C2023 03 255UBrIXo@VBg\ZfU(!A_)YPIW7N#Sal.)5,w^L-Z9C:ZyB[@(?y\IK88
     A10U2hr KC2023 03 25.91267212 09 21.66 +04 51 15.6    ~3PMb 17.9 GXNEOCP595
     A10U2hr KC2023 03 25.91850612 09 28.74 +04 52 38.2    ~3PMb 17.9 GXNEOCP595
     A10U2hr KC2023 03 25.92420312 09 35.68 +04 53 59.0    ~3PMb 18.0 GXNEOCP595
     A10U2hr KC2023 03 259:Ppn7bt'k'X)-edG/X'bU\][[s^7fyg\mYxI-%o4]xv#C2O$N*tL01
     A10U2hr KC2023 03 250AVE::\Zm#`6:dDtY2W1.4(+W/Na*^(:]B.?wr3fW`9DrK,,S8-0L01
     A10U2hr KC2023 03 25!5q_NSS1ub+Q(#Zoi;'*TKYWbfIIPK_G03TdxO)Zxe]X['Mb1\ggL01
     A10U2hr KC2023 03 25;DO\nS2s84)%hG#'aR%Lj8-qeI(!6o=5xy]QeAstrometryVCy9HL01
     A10U2hr KC2023 03 25h;`Bg8H9(`!y%$[';*x*)QgZwXj*+,jNredacted;s\Pg?jBroFTL01
     A10U2hr KC2023 03 25Pa^(EgYfv=Zl.:P9!@ANVK;u;]ne^oy`xE(11^-OrS7f)*g#pZQeM48
     A10U2hr KC2023 03 25/G#WfaY[`t3+VEq:,f`7RCAtGGj[yUDXf?5!/ie?4\3t6y4M,XoYM48
     A10U2hr KC2023 03 25pJnIY8I8:i1Pkkclick941YGlv^Fe1RwZ2VQ6JobJaWmMa8TL)gNC77
     A10U2hr KC2023 03 25QZ%5ZjFfg[Rw2hG27c6yt*[BDjINWwYknKFnk3OC0ae1N#OV#\_EC77
     A10U2hr KC2023 03 25Z)Hb`EAR5W^I63lO2f#5ouErx[1w;:E$!Dy-FidIM39`Zmil3F[(X31
     A10U2hr KC2023 03 25BZU@;f=V[b46,4C-#a0*O#j/J4U^Zj@JOv?9uQUdgRd#UKg_j)cnC77
     A10U2hr KC2023 03 25=,RbM.f++rx[#TEjJw.M,ZnE4^NxRFp9RYf`yBk+oj@Lxe=%)_wG204
     A10U2hr KC2023 03 25N5OLAOBZ'Uh/C3:l#4Uy5Wo;:qT7r(LG.nw+($:)FIZ=r7Qjm*$y204
     A10U2hr KC2023 03 26u?J)VBf]Dt+A%3ytFCvZanq8_w?CPn!QLw=/Alnbq\ERbiOBPCmBM48
     A10U2hr KC2023 03 26\2sUUJ#KKUwraDdU`67[j$?:T.QS@JbONfyAwm82n`H_c])[bHvp204
     A10U2hr KC2023 03 26?*!LJ4STS.u*dCCdUkJWPg:ZI\yMU)N'-T`cpmqFQ[iNED?IUJkoX31
     A10U2hr KC2023 03 26^nL@mSvv'W]6MCyxjJDu+gJ*hereeC-@mR5QF;LmnCPYf-#?_GC)X31
     A10U2hr KC2023 03 26C(pm2[6sU^LjiL`;@Tqc^Qj$8GCwo@Z8HP_ZeO.@3ZdW,$r3jjquJ27
     A10U2hr KC2023 03 264vg5s*:xvb([wG1+Ax?_U%d(,wLPHGxhSr,^f*4Nfp%3[0TY)9i/J27
     A10U2hr KC2023 03 26WqoTCyWD=U2pMr.9VwBBmG/(2c;oV*X4UMBxLyvCUbn\ZVPjSr2FJ27
     A10U2hr KC2023 03 26.08945712 13 05.154+05 37 25.48   ~3Q2q 18.0 GXNEOCPY00
     A10U2hr KC2023 03 26.09375212 13 09.785+05 38 20.94   ~3Q2q 17.9 GXNEOCPY00
     A10U2hr KC2023 03 26.09805412 13 14.409+05 39 16.32   ~3Q2q 17.9 GXNEOCPY00
     A10U2hr KC2023 03 26sA(_^DU;N3)*aK\g%Ye4uYp05iLgi.r_G:DNENipe0ODucsT4)DhW46
     A10U2hr KC2023 03 26^3;KV;3NZDoPiwu=fF(vuL9TZM7$;uk0H%4vZHAOy0LN'ltdhJDnW46
     A10U2hr KC2023 03 26cxOj6S_1EpfGuCU^UN0*0XtE(9EqB5-PurOk^vfor@8?v;84J@ETW46
     A10U2hr KC2023 03 26P!g$own;n6P!@%Mop2kk$eA?#UDCxNV?RV5OJ*C;4x[:Qd8vU;v6H21
     A10U2hr KC2023 03 26rRZp,2D,PsAw%#89VNSexplanation\YNUMDKJ4CVH957YAh,H)AH21
     A10U2hr KC2023 03 26KvZ[J4q],E8YDc]Xa9'08i7uS(Xt-.Ti2B`o(`.b*Kyb2mCg#9%FH21
     A10U2hr KC2023 03 26P_A)gS#tbX=NTXD],yWxDkb1H!jn,)i5Jw9x_Kg%t1bl=anO:2M+H21
     A10U2hr KC2023 03 26N8.*\6eFK5C3\i)II#[eIR'=[A*.X4b\kxG7$64B$pfa?5?TTha[H21
     A10U2hr KC2023 03 26`Bj+]H+qeh=i-AZAd87*y1s?M-cm#?]b_mN$5jBYxc9s'Qe1Pv^IH21
     A10U2hr KC2023 03 26o2VPu#S::;qSbEXx5Wg=JaEUL0_o.q[!0u.$5#uif@G0!OQylc.NX93
     A10U2hr KC2023 03 26mtCFXtGhpVl+YBNyO=L*lXIEJfSi:G=7#coQe]GA*-TL5TB?qoIMX93
     A10U2hr KC2023 03 26r=Q9qtSr8EO!:ZfR\a6CpXJ^wu-!m4s1f2\`@Txe]TY=t1y\!B,=X93
     A10U2hr KC2023 03 26UV,+/-yD'00mlpgIR]#2TwwT3yP?p+Or8[\E4DjNj:;jcn'@Z[r1H36
     A10U2hr KC2023 03 26i_d@Y[%.S=C5=WoCU_qyTgiq[J8o`dOIkI\LOkYFhI=a/X2/fyR]H36
     A10U2hr KC2023 03 264#O]c9dlc/pE5yjHE3q=gj$vj+hD^%2;UpXn4J1Ct12sUZshR6/vH36
     A10U2hr 1C2023 03 26.30131512 17 05.924+06 15 47.88   ~3Q87 18.17GVNEOCP703
     A10U2hr 1C2023 03 26.30654812 17 11.098+06 16 49.26   ~3Q87 18.07GVNEOCP703
     A10U2hr 1C2023 03 26.31178212 17 16.249+06 17 50.32   ~3Q87 18.08GVNEOCP703
     A10U2hr 1C2023 03 26.31702712 17 21.325+06 18 51.23   ~3Q87 18.14GVNEOCP703
     A10U2hr 1C2023 03 26.32322612 17 27.366+06 20 03.26   ~3Q8M 18.35GVNEOCP703
     A10U2hr 1C2023 03 26.32854612 17 32.550+06 21 04.00   ~3Q8M 18.52GVNEOCP703
     A10U2hr 1C2023 03 26.33387212 17 37.759+06 22 05.92   ~3Q8M 18.14GVNEOCP703

Station data:
(033) Karl Schwarzschild Observatory, Tautenburg  (N50.980137 E11.711240)
   Germany.  Observers S. Melnikov, C. Hoegner, B. Stecklum. Measurer B.
   Stecklum. 1.34-m f/3 Schmidt + CCD.
(204) Schiaparelli Observatory  (N45.867930 E8.770800)  Italy.  Observer L.
   Buzzi. 0.60-m f/4.64 Newtonian + CCD0.84-m f/3.5 reflector + CCD.
(595) Farra d'Isonzo  (N45.915731 E13.525780)  Italy.  Observers S. Aschi, E.
   Pettarin, G. Panterotto. Measurers S. Aschi, E. Pettarin. 0.40-m f/5.15
   reflector + CCD.
(703) Catalina Sky Survey  (N32.417003 W110.732640)  US/Arizona.  Observers
   T. A. Pruyne, B. M. Africano, E. J. Christensen, G. A. Farneth, D. C.
   Fuls, A. R. Gibbs, A. D. Grauer, H. Gröller, J. A. Johnson, R. A.
   Kowalski, S. M. Larson, G. J. Leonard, D. Rankin, R. L. Seaman, F. C.
   Shelly, K. W. Wierzchoś. 0.68 m Schmidt + 10K CCD.
(C77) Bernezzo Observatory  (N44.385247 E7.453500)  Italy.  Observer A.
   Mantero. 0.25-m f/4.0 reflector + CCD.
(H21) Astronomical Research Observatory, Westfield  (N39.483054 W87.968270)
   US/Illinois.  Observer R. Holmes. Measurers S. Foglia, L. Buzzi, T.
   Linder, R. Holmes. 0.76-m f/3.0 astrograph + CCD0.81-m f/4.0 astrograph +
   CCD0.61-m f/4.5 astrograph + CCD0.40-m f/5.32 astrograph + CCD.
(H36) Sandlot Observatory, Scranton  (N38.797690 W95.706400)  US/Kansas.
   Observer G. Hug. 0.56-m reflector + CCD.
(J27) El Guijo Observatory  (N40.607510 W4.031010)  Spain.  Observer A. San
   Segundo. 0.30-m f/4 reflector + CCD.
(K88) GINOP-KHK, Piszkéstető  (N47.917619 E19.893600)  Hungary.  Observer K.
   Sárneczky. 0.60-m Schmidt + CCD.
(L01) Višnjan Observatory, Tičan  (N45.290897 E13.749300)  Croatia.
   Observers K. Korlević, D. Pujagic, V. Dobos. Measurers D. Pujagic, K.
   Korlević. 1.0-m f/2.9 reflector + CCD.
(M48) GAC - Via L. Sturzo Observatory, Catania  (N37.506618 E15.092220)
   Italy.
(T05) ATLAS-HKO, Haleakala  (N20.707571 W156.257010)  US/Hawaii.  Observers
   L. Denneau, A. Heinze, H. Weiland, J. Tonry, H. Flewelling, A.
   Fitzsimmons, D. Young, B. Stalder. Measurers L. Denneau, A. Heinze, J.
   Tonry. 0.5-m f/2.0 Schmidt + CCD.
(W46) Foxfire Village  (N35.145625 W79.588080)  US/North Carolina.  Observer
   J. Haidet. 0.36-m f/6.3 Ritchey-Chrétien + CCD.
(X31) Galileo Galilei Observatory, Oro Verde  (S31.823020 W60.520660)
   Argentina.  Observer C. Fornari. 0.40-m f/8 Ritchey-Chrétien + CCD.
(X93) Munhoz Observatory  (S22.628912 W46.395300)  Brazil.
(Y00) SONEAR Observatory, Oliveira  (S20.715080 W44.784960)  Brazil.
   Observers C. Jacques, E. Pimentel, J. Barros. Measurer C. Jacques. 0.45-m
   f/2.9 astrograph + CCD.

Orbital elements:  A10U2hr
   Perihelion 2023 Feb 5.26209 +/- 0.00628 TT =  6:17:24 (JD 2459980.76209)
Epoch 2023 Mar 26.0 TT = JDT 2460029.5   Earth MOID: 0.0092   Ma: 0.0028
M  25.85662633 +/- 0.016            (J2000 ecliptic)             AutoNEOCP
n   0.53052388 +/- 0.000267         Peri.  295.52348 +/- 0.0054
a   1.51123762 +/- 0.000506         Node   183.77325 +/- 0.00006
e   0.4450176 +/- 0.000222          Incl.    9.48821 +/- 0.0038
P   1.86/678.56d           H 25.66  G  0.15   U  7.2
q 0.83871018 +/- 6.39e-5    Q 2.18376505 +/- 0.00107
From 60 observations 2023 Mar. 25-26 (21.6 hr); mean residual 0".42
Residuals in arcseconds: 
230325 T05  .94+  1.4+    230325 M48  .93+  .36+    230326 W46  .74-  1.0-    
230325 T05  .11-  .41-    230325 M48  1.3+  .72+    230326 H21  .07+  .05-    
230325 T05  .47-  .39-    230325 C77  .12-  .01-    230326 H21  .04-  .08+    
230325 T05  .68-  .36-    230325 C77  .11+  .23+    230326 H21  .09-  .13+    
230325 033  .22+  .26-    230325 X31  .14+  .24-    230326 H21  .03+  .01-    
230325 033  .01-  .25-    230325 C77  .25+  .16+    230326 H21  .07-  .10-    
230325 033  .24-  .04-    230325 204  .22-  .22-    230326 H21  .15+  .00     
230325 K88  .08+  .26-    230325 204  .14-  .26-    230326 X93  .20+  .34-    
230325 K88  .02-  .25+    230326 M48  .79+  .52+    230326 X93  .30+  .21+    
230325 K88  .15+  .12+    230326 204  .19-  .04+    230326 X93  .13+  .59+    
230325 K88  .19+  .08-    230326 X31  .26+  .16-    230326 H36  .01-  .30+    
230325 K88  .09+  .08-    230326 X31  .75+  .20+    230326 H36  .33+  .32+    
230325 595  .09+  .44+    230326 J27  .28-  .08+    230326 H36  .56+  .38+    
230325 595  .34-  .12+    230326 J27  .45-  .09+    230326 703  .34-  .52-    
230325 595  .00   .21+    230326 J27  .81-  .35+    230326 703  .14+  .19-    
230325 L01  .29-  .15-    230326 Y00  .29+  .02+    230326 703  .44+  .01-    
230325 L01  .37-  .29-    230326 Y00  .18+  .02+    230326 703  .35-  .08+    
230325 L01  .29-  .33-    230326 Y00  .04+  .00     230326 703  .45-  .46+    
230325 L01  .31-  .12-    230326 W46  1.1-  1.1-    230326 703  .36-  .08-    
230325 L01  .23-  .16-    230326 W46  .87-  1.2-    230326 703  .17+  .68+    

Ephemerides (geocentric):
Date (UTC) HH   RA             Dec           delta  r     elong  mag " sig PA
